Torna al catalogo

STARLINK-32574

AttivoComunicazioniVLEO
NORAD 61954·PAYLOAD·🇺🇸 United States

Lanciato Nov 14, 2024 da Vandenberg Space Force Base

Loading…

Prossimi Passaggi (prossime 24 ore)

TLE

AggiornatoSource: CelesTrak SupGP

Epoca: Sep 14, 2026, 21:32 UTC

1 61954C 24209R   26257.89770833 -.00010980  00000+0 -32445-3 0  2576
2 61954  53.1589 334.1418 0001234  78.8834  71.6770 15.34392459    14

Traccia STARLINK-32574 in tempo reale con AllMySat

Download on the App Store